www.pogodaiklimat.ru

Погода и климат >> Архив погоды >> ОАЭ >> Dubai


АРХИВ ПОГОДЫ в Dubai

Время (UTC), дата Ветер
(напр.,м/с)
 
Видим.   Явления Облачность Т
(С)
Тd
(С)
f
(%)
Тe
(С)
Тes
(С)
Комфортность P
(гПа)
Po
(гПа)
Тmin
(С)
Tmax
(С)
R
(мм)
R24
(мм)
S
(см)
12 22.04 СЗ 5 10 км ясно +31.1 +17.3 44 +35 +39 очень
душно
1005.4 1004.9
21 22.04 З 2 10 км ясно +28.0 +20.7 65 +35 +35 очень
душно
1007.9 1007.4
00 23.04 ЮВ 2 10 км ясно +26.3 +22.4 79 +34 +34 очень
душно
1007.4 1006.9
03 23.04 Ю 2 6000 м в посл. час туман ясно +23.9 +22.2 90 +31 +32 очень
душно
1008.6 1008.1
06 23.04 нст 2 8000 м пыль {туман} ясно +32.9 +17.0 39 +36 +53 опасность
солнечного
удара
1009.8 1009.3 +23.3
09 23.04 СЗ 7 10 км ясно +32.6 +21.7 53 +41 +46 опасность
перегрева
1008.4 1007.9
12 23.04 СЗ 7 10 км ясно +32.6 +21.7 53 +41 +43 опасность
перегрева
1008.4 1007.9
15 23.04 СЗ 3 10 км ясно +30.1 +22.4 63 +39 +39 очень
душно
1006.8 1006.3
18 23.04 нст 1 10 км ясно +29.6 +22.2 64 +38 +38 очень
душно
1007.8 1007.3 +37.7
21 23.04 С 3 10 км ясно +27.8 +23.1 76 +37 +37 очень
душно
1007.2 1006.7
00 24.04 В 2 10 км ясно +28.6 +20.5 62 +35 +35 очень
душно
1006.2 1005.7
06 24.04 Ю 3 10 км ясно +33.4 +14.8 33 +35 +48 душно 1008.7 1008.2 +24.2
12 24.04 З 6 10 км ясно +35.2 +8.5 19 +33 +36 жарко 1006.4 1005.9
15 24.04 СЗ 7 10 км ясно +31.1 +13.2 34 +32 +32 жарко 1007.0 1006.5
18 24.04 С 2 10 км ясно +31.2 +12.4 32 +32 +32 жарко 1008.9 1008.4 +38.2
21 24.04 В 2 10 км ясно +29.0 +12.3 36 +30 +30 жарко 1008.1 1007.6
00 25.04 ЮВ 2 10 км ясно +28.3 +10.3 33 +29 +29 жарко 1007.8 1007.3
03 25.04 ЮВ 3 10 км ясно +28.5 +7.4 26 +28 +29 жарко 1008.2 1007.7
06 25.04 Ю 2 10 км 4/0
[Ci fib]
+36.1 +1.5 11 +33 +46 жарко 1009.2 1008.6 +26.9
09 25.04 З 5 10 км 8/0
[Ci fib]
+38.8 -2.7 7 +35 +45 очень
жарко
1008.4 1007.8
12 25.04 СЗ 5 10 км 8/0
[Ci fib]
+36.0 +2.6 12 +33 +36 жарко 1007.5 1006.9
15 25.04 СЗ 3 10 км 4/0
[Ci fib]
+32.0 +8.6 23 +31 +31 жарко 1008.3 1007.7
18 25.04 ЮЗ 1 10 км ясно +31.4 +9.9 27 +31 +31 жарко 1009.0 1008.5 +39.5
21 25.04 Ю 3 10 км ясно +28.5 +8.0 28 +28 +28 жарко 1008.0 1007.5
00 26.04 нст 2 10 км ясно +27.3 +4.0 22 +26 +26 жарко 1007.1 1006.6
03 26.04 нст 1 10 км ясно +26.5 +3.3 22 +25 +27 комфорт 1008.1 1007.6
06 26.04 З 3 10 км ясно +33.5 +1.7 13 +30 +44 жарко 1010.2 1009.6 +25.7
09 26.04 З 5 10 км ясно +34.9 +0.5 11 +31 +42 жарко 1009.4 1008.8
21 26.04 Ю 3 10 км ясно +28.2 +17.3 52 +32 +32 душно 1008.2 1007.7
00 27.04 Ю 3 10 км ясно +26.9 +15.5 50 +30 +30 душно 1007.4 1006.9
03 27.04 Ю 3 10 км ясно +26.3 +17.3 58 +30 +32 душно 1008.4 1007.9
06 27.04 ЮЗ 3 10 км ясно +31.6 +19.2 48 +37 +51 опасность
солнечного
удара
1009.7 1009.1 +25.7
15 27.04 СЗ 4 10 км ясно +30.1 +22.4 63 +39 +39 очень
душно
1008.0 1007.5
21 27.04 Ю 2 10 км ясно +28.8 +22.2 68 +38 +38 очень
душно
1009.2 1008.7
00 28.04 ЮВ 3 10 км ясно +28.0 +21.2 67 +35 +35 очень
душно
1008.7 1008.2
03 28.04 ЮЗ 2 8000 м пыль ясно +26.9 +21.1 71 +34 +36 очень
душно
1009.6 1009.1
06 28.04 нст 2 10 км ясно +34.9 +15.1 31 +37 +53 опасность
солнечного
удара
1010.8 1010.2 +26.6
09 28.04 СЗ 6 10 км ясно +34.8 +20.3 43 +41 +49 опасность
перегрева
1009.4 1008.8
21 28.04 нст 1 10 км ясно +31.8 +13.9 34 +33 +33 жарко 1008.6 1008.1
03 29.04 Ю 3 10 км ясно +30.0 +11.3 32 +31 +32 жарко 1010.1 1009.6

 

Местоположение метеостанции Dubai (ОАЭ): широта 25.25 долгота 55.33 высота над уровнем моря 5 м.

В архиве по умолчанию представлена погода в Dubai за последнюю неделю. Архивные данные за месяц целиком и за предыдущие месяцы, начиная с января 2011 года, Вы можете получить, выбрав интересующий диапазон дат из раскрывающегося списка и нажав кнопку "Ввод!".

Внимание! Время в таблицах - всемирное. Для получения местного времени необходимо прибавить поправку, которая в Dubai равна 4 ч.

Смотрите также архив погоды в соседних городах и на ближайших метеорологических станциях:

Погода в Sharjah (ОАЭ) (21 км)
Погода в Dubai Al Maktoum Int Airport (ОАЭ) (43 км)
Погода в Ras Al Khaimah Int Airport (ОАЭ) (73 км)
Погода в Abu Musa Island (Иран) (82 км)
Погода в Diba (Оман) (101 км)
Погода в Fujairah (ОАЭ) (102 км)
Погода в Sirri Island (Иран) (107 км)
Погода в Al Ain Int Airport (ОАЭ) (112 км)
Погода в Abu Dhabi (ОАЭ) (114 км)
Погода в Buraimi (Оман) (122 км)

Пояснения к столбцам:

Ветер - указаны скорость ветра в м/с - средняя за 10 мин, порывы в срок и между сроками (в фигурных скобках) и направление, откуда дует ветер: С - северный, СВ - северо-восточный, В - восточный, ЮВ - юго-восточный, Ю - южный, ЮЗ - юго-западный, З - западный, СЗ - северо-западный.
Видимость - горизонтальная дальность видимости в метрах или километрах. При видимости от 1 до 10 км при отсутствии осадков обычно наблюдается дымка, при ухудшении видимости до 1 км и менее - туман. В сухую погоду видимость может ухудшаться дымом, пылью или мглою.
Явления - указаны атмосферные явления, наблюдавшиеся в срок или в последний час перед сроком; фигурными скобками обозначены явления, наблюдавшиеся между сроками (за 1-3 часа до срока); квадратными скобками обозначены град или гололедные отложения с указанием их диаметра в мм.
Облачность - указаны через наклонную черту общая и нижняя облачность в баллах и высота нижней границы облаков в метрах; квадратными скобками обозначены формы облаков: Ci - перистые, Cs - перисто-слоистые, Cc - перисто-кучевые, Ac - высококучевые, As - высокослоистые, Sc - слоисто-кучевые, Ns - слоисто-дождевые, Cu - кучевые, Cb - кучево-дождевые. Подробнее классификацию облаков см. в Атласе облаков (PDF).
T - Температура воздуха - температура, измеренная на высоте 2 м над землей.
Td - Температура точки росы - температура, при понижении до которой содержащийся в воздухе водяной пар достигнет насыщения.
f - Относительная влажность воздуха - влажноcть воздуха, измеренная на высоте 2 м над землей.
Te - Эффективная температура - температура, которую ощущает одетый по сезону человек в тени. Характеристика душности погоды. При расчете учитывается влияние влажности воздуха и скорости ветра на теплоощущения человека.
Tes - Эффективная температура на солнце - температура, которую ощущает человек, с поправкой на солнечный нагрев. Характеристика знойности погоды. Зависит от высоты солнца над горизонтом, облачности и скорости ветра. Ночью, в пасмурную погоду, а также при ветре 12 м/с и более поправка равна нулю.
P - Атмосферное давление - приведенное к уровню моря атмосферное давление.
Po - Атмосферное давление - измеренное на уровне метеостанции атмосферное давление.
Tmin - Минимальная температура - минимум температуры воздуха на высоте 2 м над землей.
Tmax - Максимальная температура - максимум температуры воздуха на высоте 2 м над землей.
R - Количество осадков - Количество выпавших осадков за период времени, мм. При наведении курсора мыши на число - период времени, за который выпало указанное количество осадков.
R24 - Количество осадков - Количество выпавших осадков за 24 часа, мм.
S - Снежный покров - Высота снежного покрова, см. При наведении курсора мыши на число - состояние снежного покрова и степень покрытия местности в баллах.